Starlink 31157

operational
NORAD ID: 58735 Int'l Des: 2024-005 Owner: SPXS Country: US Constellation: starlink
LEOCIRCULAR

Über Starlink 31157

Beschreibung wird geladen...

Live-Position

3D-Globus wird geladen...

Nächste Überflüge

Höhenverlauf

Altitude vs Time

uPlot chart will show altitude changes over time

Zweizeiliger Elementsatz

1 58735U 24005H 25350.96453691 .00000538 00000-0 54904-4 0 9999
2 58735 43.0047 311.4643 0001241 266.5846 93.4855 15.02540140107975
Epoch: 16. Dez. 2025 • Age: 12 hours

Aktueller Status

Höhe 570.4 km
Geschwindigkeit 7.58 km/s
Subsatellitenpunkt -40.12°S, 65.08°W
Startdatum 7. Jan. 2024
Alter 1.9 years
Typ internet

Technische Details

Klassifizierung Payload
Masse 730.00 kg
Trockenmasse 700.00 kg
Gesamtmasse 730.00 kg
Länge 0.30 m
Durchmesser 4.10 m
Spannweite 29.00 m
Form Box + pan
Hersteller SPXS
Bus-Typ Starlink V2M
Phasenstatus In Orbit
Besitzer/Staat SPXS/US

Große Konstellationen

Loading constellations...